| time (UTC) | temp F | wind direction | speed MPH | gust MPH | rain 1hr in | rain 24hr in | rain mn in | humidity % | barometer mb |
| 20260906054123 | 50 | 334 | 11.0 | 18.0 | 0.00 | 0.00 | 0.00 | 80 | 1004.9 |
| 20260906052122 | 50 | 346 | 11.0 | 17.0 | 0.00 | 0.00 | 0.00 | 82 | 1004.8 |
| 20260906050453 | 50 | 350 | 11.0 | 15.0 | 0.00 | 0.00 | 0.00 | 82 | 1004.7 |
| 20260906044122 | 49 | 333 | 11.0 | 16.0 | 0.00 | 0.00 | 0.00 | 86 | 1004.6 |
| 20260906042122 | 49 | 335 | 10.0 | 13.0 | 0.00 | 0.00 | 0.00 | 87 | 1004.3 |
| 20260906040121 | 49 | 343 | 13.0 | 20.0 | 0.00 | 0.00 | 0.00 | 92 | 1003.9 |
| 20260906034453 | 49 | 317 | 12.0 | 16.0 | 0.00 | 0.00 | 0.00 | 96 | 1003.6 |
| 20260906032452 | 49 | 312 | 10.0 | 15.0 | 0.00 | 0.00 | 0.00 | 95 | 1003.5 |
| 20260906030453 | 49 | 312 | 10.0 | 15.0 | 0.00 | 0.00 | 0.00 | 94 | 1003.2 |
| 20260906022453 | 49 | 310 | 9.0 | 13.0 | 0.00 | 0.00 | 0.00 | 94 | 1002.8 |
| 20260906020452 | 49 | 314 | 10.0 | 13.0 | 0.00 | 0.00 | 0.00 | 94 | 1002.5 |
| 20260906014453 | 49 | 315 | 9.0 | 13.0 | 0.00 | 0.00 | 0.00 | 95 | 1002.3 |
| 20260906012452 | 49 | 316 | 10.0 | 14.0 | 0.00 | 0.00 | 0.00 | 94 | 1002.2 |
| 20260906010453 | 49 | 317 | 9.0 | 12.0 | 0.00 | 0.00 | 0.00 | 94 | 1002.0 |
| 20260906004454 | 49 | 315 | 8.0 | 12.0 | 0.00 | 0.00 | 0.00 | 95 | 1001.8 |
| 20260906000451 | 48 | 306 | 8.0 | 11.0 | 0.00 | 0.00 | 0.00 | 97 | 1001.4 |
| 20260905234452 | 48 | 309 | 9.0 | 12.0 | 0.00 | 0.00 | 0.00 | 95 | 1001.3 |
| 20260905232452 | 48 | 315 | 9.0 | 12.0 | 0.00 | 0.00 | 0.00 | 95 | 1001.0 |
| 20260905230452 | 48 | 323 | 9.0 | 12.0 | 0.00 | 0.00 | 0.00 | 96 | 1000.9 |
| 20260905224452 | 48 | 322 | 9.0 | 11.0 | 0.00 | 0.00 | 0.00 | 96 | 1000.7 |
| 20260905222451 | 49 | 332 | 8.0 | 10.0 | 0.00 | 0.00 | 0.00 | 97 | 1000.6 |
| 20260905214451 | 49 | 322 | 7.0 | 10.0 | 0.00 | 0.00 | 0.00 | 96 | 1000.3 |
| 20260905212452 | 49 | 314 | 6.0 | 7.0 | 0.00 | 0.00 | 0.00 | 95 | 1000.2 |
| 20260905204451 | 52 | 329 | 9.0 | 12.0 | 0.00 | 0.00 | 0.00 | 89 | 999.7 |
| 20260905202451 | 53 | 327 | 9.0 | 11.0 | 0.00 | 0.00 | 0.00 | 89 | 999.5 |
| 20260905200452 | 53 | 318 | 9.0 | 11.0 | 0.00 | 0.00 | 0.00 | 89 | 999.3 |
| 20260905194451 | 54 | 320 | 9.0 | 12.0 | 0.00 | 0.00 | 0.00 | 87 | 999.1 |
| 20260905192121 | 55 | 313 | 8.0 | 11.0 | 0.00 | 0.00 | 0.00 | 83 | 998.8 |
| 20260905190120 | 55 | 311 | 8.0 | 11.0 | 0.00 | 0.00 | 0.00 | 82 | 998.8 |
| 20260905184121 | 56 | 319 | 8.0 | 11.0 | 0.00 | 0.00 | 0.00 | 80 | 998.7 |
| 20260905182450 | 56 | 319 | 7.0 | 9.0 | 0.00 | 0.00 | 0.00 | 79 | 998.6 |
| 20260905180449 | 56 | 309 | 7.0 | 10.0 | 0.00 | 0.00 | 0.00 | 77 | 998.4 |
| 20260905174449 | 56 | 288 | 5.0 | 7.0 | 0.00 | 0.00 | 0.00 | 80 | 998.3 |
| 20260905172449 | 57 | 302 | 8.0 | 10.0 | 0.00 | 0.00 | 0.00 | 73 | 998.1 |
| 20260905170450 | 58 | 304 | 8.0 | 11.0 | 0.00 | 0.00 | 0.00 | 70 | 997.9 |
| 20260905164451 | 59 | 305 | 8.0 | 11.0 | 0.00 | 0.00 | 0.00 | 67 | 997.7 |
| 20260905162121 | 59 | 310 | 9.0 | 13.0 | 0.00 | 0.00 | 0.00 | 66 | 997.5 |
| 20260905154451 | 61 | 297 | 8.0 | 11.0 | 0.00 | 0.00 | 0.00 | 60 | 997.0 |
| 20260905152452 | 60 | 312 | 8.0 | 11.0 | 0.00 | 0.00 | 0.00 | 63 | 997.0 |
| 20260905150450 | 61 | 299 | 9.0 | 11.0 | 0.00 | 0.00 | 0.00 | 62 | 996.9 |
| 20260905142450 | 63 | 319 | 10.0 | 14.0 | 0.00 | 0.00 | 0.00 | 55 | 996.5 |
| 20260905140451 | 62 | 319 | 11.0 | 15.0 | 0.00 | 0.00 | 0.00 | 52 | 996.4 |
| 20260905132120 | 63 | 335 | 9.0 | 12.0 | 0.00 | 0.00 | 0.00 | 53 | 996.1 |
| 20260905124449 | 63 | 339 | 7.0 | 12.0 | 0.00 | 0.00 | 0.00 | 57 | 995.9 |
| 20260905122119 | 62 | 227 | 10.0 | 14.0 | 0.00 | 0.00 | 0.00 | 58 | 995.7 |
| 20260905120449 | 64 | 216 | 9.0 | 13.0 | 0.00 | 0.00 | 0.00 | 58 | 995.6 |
| 20260905114449 | 62 | 227 | 6.0 | 9.0 | 0.00 | 0.00 | 0.00 | 57 | 995.6 |
| 20260905110118 | 61 | 291 | 6.0 | 8.0 | 0.00 | 0.00 | 0.00 | 63 | 995.4 |
| 20260905104449 | 60 | 319 | 4.0 | 6.0 | 0.00 | 0.00 | 0.00 | 68 | 995.3 |
| 20260905102450 | 60 | 323 | 6.0 | 11.0 | 0.00 | 0.00 | 0.00 | 66 | 995.1 |
| 20260905100449 | 63 | 214 | 4.0 | 9.0 | 0.00 | 0.00 | 0.00 | 59 | 994.8 |
| 20260905094448 | 61 | 268 | 4.0 | 7.0 | 0.00 | 0.00 | 0.00 | 70 | 994.9 |
| 20260905092448 | 60 | 270 | 3.0 | 5.0 | 0.00 | 0.00 | 0.00 | 74 | 995.0 |
| 20260905090450 | 58 | 262 | 3.0 | 5.0 | 0.00 | 0.00 | 0.00 | 79 | 994.9 |
| 20260905082452 | 55 | 317 | 5.0 | 6.0 | 0.00 | 0.00 | 0.00 | 86 | 994.8 |
| 20260905072118 | 51 | 329 | 5.0 | 7.0 | 0.00 | 0.00 | 0.00 | 99 | 994.6 |
| 20260905064118 | 49 | 331 | 4.0 | 5.0 | 0.00 | 0.00 | 0.00 | 100 | 994.3 |
| 20260905062118 | 47 | 317 | 4.0 | 5.0 | 0.00 | 0.00 | 0.00 | 100 | 994.3 |